period_start,C,m1,H,J0,J1,J2,J3,J4,J5,JA,JB,JC,JD,JJ,JK,JN,#
2016-04-15 00:04:49,0.07,0.70,0.00,19.12,23.87,27.12,14.96,50.07,1024.97,2048.96,3201.41,2972.40,3369.57,600.16,609.08,4.83,0000 0000 0000 0000 000000
2016-04-15 00:09:50,0.08,0.71,0.00,19.13,23.88,27.14,14.96,50.07,1024.97,2048.98,3199.77,2971.29,3368.38,600.34,609.14,4.88,0000 0000 0000 0000 000000
2016-04-15 00:14:52,0.06,0.71,0.00,19.16,23.89,27.15,14.92,49.88,1025.02,2048.97,3198.30,2970.22,3367.15,599.83,608.82,4.93,0000 0000 0000 0000 000000
2016-04-15 00:19:53,0.07,0.72,0.00,19.18,23.90,27.14,14.90,49.80,1025.06,2048.98,3196.74,2969.08,3365.83,600.00,608.67,4.98,0000 0000 0000 0000 000000
2016-04-15 00:24:54,0.07,0.72,0.00,19.20,23.90,27.14,14.91,50.01,1025.07,2048.98,3195.16,2967.99,3364.64,599.96,608.76,5.03,0000 0000 0000 0000 000000
2016-04-15 00:29:55,0.08,0.72,0.00,19.21,23.90,27.16,14.98,50.01,1025.08,2048.96,3193.56,2966.90,3363.39,600.25,608.90,5.08,0000 0000 0000 0000 000000
2016-04-15 00:34:56,0.06,0.73,0.00,19.23,23.92,27.17,14.90,50.01,1025.19,2048.92,3192.17,2965.83,3362.20,600.11,608.93,5.13,0000 0000 0000 0000 000000
2016-04-15 00:39:57,0.07,0.73,0.00,19.25,23.92,27.17,14.93,50.17,1025.12,2048.92,3190.71,2964.79,3361.00,600.07,608.78,5.18,0000 0000 0000 0000 000000
2016-04-15 00:44:59,0.06,0.73,0.00,19.26,23.94,27.20,14.99,50.10,1025.24,2048.94,3189.40,2963.86,3359.90,600.28,609.06,5.23,0000 0000 0000 0000 000000
2016-04-15 00:50:00,0.06,0.74,0.00,19.27,23.95,27.22,14.99,50.11,1025.31,2048.90,3188.01,2962.87,3358.78,600.28,609.16,5.28,0000 0000 0000 0000 000000
2016-04-15 00:55:02,0.06,0.74,0.00,19.30,23.97,27.19,14.89,50.05,1025.29,2048.71,3186.61,2961.81,3357.61,600.07,608.88,5.33,0000 0000 0000 0000 000000
2016-04-15 01:00:03,0.03,0.74,0.00,19.32,23.98,27.19,14.88,50.05,1025.27,2048.20,3185.07,2960.70,3356.32,599.95,608.53,5.38,0000 0000 0000 0000 000000
2016-04-15 01:05:04,0.06,0.75,0.00,19.35,24.00,27.20,14.91,49.98,1025.26,2048.12,3183.59,2959.67,3355.08,600.06,608.66,5.43,0000 0000 0000 0000 000000
2016-04-15 01:10:05,0.08,0.75,0.00,19.37,24.01,27.20,14.83,50.08,1025.27,2048.04,3181.86,2958.43,3353.73,599.57,608.17,5.48,0000 0000 0000 0000 000000
2016-04-15 01:15:06,0.07,0.75,0.00,19.40,24.03,27.22,14.90,50.23,1025.30,2048.03,3180.02,2957.15,3352.37,600.04,608.53,5.53,0000 0000 0000 0000 000000
2016-04-15 01:20:08,0.09,0.76,0.00,19.43,24.05,27.25,14.92,50.10,1025.35,2048.01,3178.21,2955.81,3350.83,600.32,608.77,5.58,0000 0000 0000 0000 000000
2016-04-15 01:25:09,0.08,0.76,0.00,19.44,24.07,27.25,14.88,50.02,1025.37,2048.00,3176.55,2954.64,3349.48,599.78,608.26,5.63,0000 0000 0000 0000 000000
2016-04-15 01:30:10,0.07,0.77,0.00,19.45,24.08,27.25,14.93,50.09,1025.40,2047.99,3174.91,2953.43,3348.05,600.04,608.44,5.68,0000 0000 0000 0000 000000
2016-04-15 01:35:12,0.08,0.77,0.00,19.48,24.10,27.28,14.86,50.05,1025.40,2047.99,3173.24,2952.22,3346.69,599.69,608.04,5.73,0000 0000 0000 0000 000000
2016-04-15 01:40:13,0.07,0.77,0.00,19.51,24.12,27.29,14.90,50.04,1025.40,2047.98,3171.61,2951.09,3345.45,600.07,608.34,5.78,0000 0000 0000 0000 000000
2016-04-15 01:45:14,0.07,0.78,0.00,19.55,24.14,27.29,14.87,50.15,1025.40,2047.97,3170.02,2949.91,3344.12,599.90,608.17,5.83,0000 0000 0000 0000 000000
2016-04-15 01:50:15,0.07,0.78,0.00,19.60,24.16,27.30,14.90,50.18,1025.40,2047.96,3168.50,2948.83,3342.83,600.17,608.48,5.88,0000 0000 0000 0000 000000
2016-04-15 01:55:17,0.08,0.79,0.00,19.62,24.18,27.36,14.90,50.13,1025.39,2047.87,3166.78,2947.61,3341.47,599.78,607.92,5.93,0000 0000 0000 0000 000000
2016-04-15 02:00:18,0.05,0.79,0.00,19.65,24.20,27.38,14.81,50.20,1025.40,2047.61,3165.07,2946.41,3340.08,600.00,608.08,5.98,0000 0000 0000 0000 000000
2016-04-15 02:05:19,0.04,0.79,0.00,19.67,24.22,27.38,14.84,50.08,1025.39,2047.27,3163.49,2945.27,3338.80,599.98,608.00,6.03,0000 0000 0000 0000 000000
2016-04-15 02:10:20,0.07,0.80,0.00,19.70,24.25,27.37,14.87,49.93,1025.40,2047.19,3161.85,2944.14,3337.54,599.97,607.88,6.08,0000 0000 0000 0000 000000
2016-04-15 02:15:22,0.07,0.80,0.00,19.74,24.27,27.41,14.84,50.08,1025.40,2047.04,3160.15,2942.91,3336.07,599.80,607.67,6.13,0000 0000 0000 0000 000000
2016-04-15 02:20:23,0.09,0.80,0.00,19.78,24.30,27.45,14.89,50.12,1025.40,2047.01,3158.31,2941.63,3334.64,599.85,607.65,6.18,0000 0000 0000 0000 000000
2016-04-15 02:25:24,0.08,0.81,0.00,19.81,24.32,27.44,14.83,50.02,1025.40,2047.00,3156.49,2940.33,3333.12,599.85,607.60,6.23,0000 0000 0000 0000 000000
2016-04-15 02:30:26,0.10,0.81,0.00,19.84,24.35,27.47,14.88,50.05,1025.40,2047.00,3154.59,2938.90,3331.56,600.18,607.84,6.28,0000 0000 0000 0000 000000
2016-04-15 02:35:27,0.10,0.82,0.00,19.89,24.38,27.51,14.89,50.00,1025.40,2047.00,3152.59,2937.53,3329.94,600.04,607.61,6.33,0000 0000 0000 0000 000000
2016-04-15 02:40:28,0.10,0.82,0.00,19.92,24.41,27.51,14.82,49.88,1025.40,2047.00,3150.52,2936.00,3328.21,599.81,607.23,6.38,0000 0000 0000 0000 000000
2016-04-15 02:45:29,0.11,0.83,0.00,19.95,24.44,27.53,14.87,50.08,1025.40,2047.00,3148.35,2934.44,3326.53,599.94,607.37,6.43,0000 0000 0000 0000 000000
2016-04-15 02:50:30,0.12,0.84,0.00,20.00,24.47,27.56,14.85,50.06,1025.40,2047.00,3145.97,2932.69,3324.57,599.58,606.89,6.48,0000 0000 0000 0000 000000
2016-04-15 02:55:32,0.12,0.84,0.00,20.04,24.51,27.59,14.75,50.13,1025.41,2047.00,3143.49,2930.86,3322.51,599.62,606.89,6.53,0000 0000 0000 0000 000000
2016-04-15 03:00:33,0.12,0.85,0.00,20.08,24.54,27.62,14.81,50.04,1025.42,2047.00,3141.15,2929.09,3320.45,600.23,607.31,6.58,0000 0000 0000 0000 000000
2016-04-15 03:05:34,0.11,0.85,0.00,20.11,24.57,27.65,14.86,50.15,1025.42,2046.97,3138.71,2927.35,3318.50,599.72,606.94,6.64,0000 0000 0000 0000 000000
2016-04-15 03:10:36,0.10,0.86,0.00,20.15,24.61,27.67,14.87,49.94,1025.42,2046.83,3136.40,2925.63,3316.55,600.22,607.28,6.69,0000 0000 0000 0000 000000
2016-04-15 03:15:37,0.07,0.86,0.00,20.20,24.65,27.69,14.90,50.27,1025.42,2046.37,3134.27,2923.89,3314.56,600.51,607.38,6.74,0000 0000 0000 0000 000000
2016-04-15 03:20:39,0.11,0.87,0.00,20.23,24.68,27.72,14.88,50.27,1025.43,2046.06,3131.67,2921.93,3312.38,600.36,607.10,6.79,0000 0000 0000 0000 000000
2016-04-15 03:25:40,0.15,0.88,0.00,20.28,24.72,27.75,14.85,50.19,1025.48,2046.02,3128.86,2919.84,3309.94,600.17,606.88,6.84,0000 0000 0000 0000 000000
2016-04-15 03:30:41,0.15,0.88,0.00,20.32,24.76,27.78,14.79,50.03,1025.55,2046.00,3125.94,2917.57,3307.44,599.74,606.70,6.89,0000 0000 0000 0000 000000
2016-04-15 03:35:42,0.15,0.89,0.00,20.36,24.79,27.81,14.75,49.98,1025.57,2046.00,3123.10,2915.40,3304.96,600.06,606.70,6.94,0000 0000 0000 0000 000000
2016-04-15 03:40:44,0.12,0.90,0.00,20.41,24.83,27.83,14.86,50.28,1025.53,2045.97,3120.53,2913.52,3302.80,600.00,606.56,6.99,0000 0000 0000 0000 000000
2016-04-15 03:45:45,0.11,0.90,0.00,20.45,24.87,27.86,14.86,50.37,1025.73,2045.93,3118.22,2911.83,3300.89,600.06,606.53,7.04,0000 0000 0000 0000 000000
2016-04-15 03:50:47,0.08,0.91,0.00,20.50,24.91,27.89,14.75,50.10,1025.83,2045.63,3116.00,2910.14,3299.05,599.85,606.39,7.09,0000 0000 0000 0000 000000
2016-04-15 03:55:48,0.08,0.91,0.00,20.54,24.94,27.92,14.84,50.05,1025.82,2045.14,3113.61,2908.40,3297.02,599.80,606.27,7.14,0000 0000 0000 0000 000000
2016-04-15 04:00:49,0.13,0.92,0.00,20.59,24.97,27.95,14.75,50.01,1025.84,2045.01,3111.16,2906.52,3294.91,599.80,606.18,7.19,0000 0000 0000 0000 000000
2016-04-15 04:05:50,0.13,0.92,0.00,20.63,25.01,27.99,14.82,50.20,1025.85,2045.00,3108.62,2904.72,3292.83,600.25,606.65,7.24,0000 0000 0000 0000 000000
2016-04-15 04:10:51,0.13,0.93,0.00,20.68,25.04,28.03,14.83,50.32,1025.86,2045.00,3106.08,2902.86,3290.68,600.44,606.69,7.29,0000 0000 0000 0000 000000
2016-04-15 04:15:52,0.15,0.94,0.00,20.72,25.08,28.06,14.81,50.24,1025.88,2044.98,3103.06,2900.57,3288.19,600.12,606.25,7.34,0000 0000 0000 0000 000000
2016-04-15 04:20:53,0.13,0.95,0.00,20.77,25.11,28.11,14.82,50.06,1025.89,2044.84,3099.94,2898.32,3285.50,599.92,605.96,7.39,0000 0000 0000 0000 000000
2016-04-15 04:25:54,0.13,0.95,0.00,20.80,25.15,28.16,14.79,50.27,1025.89,2044.36,3096.62,2895.86,3282.70,600.17,606.13,7.44,0000 0000 0000 0000 000000
2016-04-15 04:30:56,0.20,0.96,0.00,20.83,25.18,28.20,14.80,50.01,1025.89,2044.03,3092.72,2892.89,3279.38,600.20,605.95,7.49,0000 0000 0000 0000 000000
2016-04-15 04:35:57,0.23,0.97,0.00,20.87,25.22,28.23,14.85,49.84,1025.89,2044.00,3088.27,2889.63,3275.69,600.26,606.08,7.54,0000 0000 0000 0000 000000
2016-04-15 04:40:58,0.23,0.98,0.00,20.90,25.26,28.27,14.70,49.96,1025.90,2044.00,3083.79,2886.32,3271.89,599.67,605.54,7.59,0000 0000 0000 0000 000000
2016-04-15 04:45:59,0.23,1.00,0.00,20.95,25.29,28.29,14.77,50.18,1025.90,2043.98,3079.25,2883.02,3268.18,600.10,605.71,7.64,0000 0000 0000 0000 000000
2016-04-15 04:51:01,0.23,1.01,0.00,20.98,25.33,28.33,14.80,50.28,1025.91,2043.95,3074.58,2879.63,3264.36,600.09,605.66,7.69,0000 0000 0000 0000 000000
2016-04-15 04:56:02,0.23,1.02,0.00,21.02,25.36,28.37,14.78,50.09,1025.90,2043.73,3069.92,2876.17,3260.49,599.84,605.30,7.74,0000 0000 0000 0000 000000
2016-04-15 05:01:04,0.19,1.03,0.00,21.06,25.40,28.38,14.78,50.02,1025.92,2043.15,3065.26,2872.63,3256.46,599.94,605.39,7.79,0000 0000 0000 0000 000000
2016-04-15 05:06:05,0.24,1.04,0.00,21.10,25.43,28.44,14.80,50.06,1025.91,2043.01,3060.63,2869.13,3252.49,599.85,605.07,7.84,0000 0000 0000 0000 000000
2016-04-15 05:11:07,0.24,1.05,0.00,21.13,25.47,28.47,14.77,50.07,1025.91,2043.00,3056.20,2865.74,3248.65,600.04,605.27,7.89,0000 0000 0000 0000 000000
2016-04-15 05:16:08,0.26,1.07,0.00,21.17,25.51,28.50,14.75,49.92,1025.91,2042.99,3051.47,2862.07,3244.53,599.74,605.18,7.94,0000 0000 0000 0000 000000
2016-04-15 05:21:09,0.26,1.08,0.00,21.22,25.54,28.54,14.78,49.99,1025.90,2042.97,3046.70,2858.35,3240.32,600.14,605.25,7.99,0000 0000 0000 0000 000000
2016-04-15 05:26:10,0.22,1.09,0.00,21.25,25.58,28.55,14.75,49.92,1025.91,2042.71,3041.93,2854.63,3236.08,599.58,604.67,8.04,0000 0000 0000 0000 000000
2016-04-15 05:31:11,0.20,1.10,0.00,21.29,25.61,28.60,14.75,49.95,1025.90,2042.26,3037.44,2851.16,3232.16,600.03,604.98,8.09,0000 0000 0000 0000 000000
2016-04-15 05:36:12,0.24,1.11,0.00,21.33,25.65,28.65,14.81,50.08,1025.90,2042.04,3032.86,2847.60,3228.18,600.40,605.22,8.14,0000 0000 0000 0000 000000
2016-04-15 05:41:13,0.25,1.13,0.00,21.37,25.69,28.67,14.77,49.88,1025.91,2042.00,3028.19,2843.97,3224.14,599.98,604.87,8.19,0000 0000 0000 0000 000000
2016-04-15 05:46:15,0.26,1.14,0.00,21.40,25.73,28.70,14.77,50.07,1025.91,2042.00,3023.59,2840.35,3220.01,600.16,604.91,8.24,0000 0000 0000 0000 000000
2016-04-15 05:51:16,0.24,1.15,0.00,21.44,25.76,28.73,14.79,50.17,1025.91,2041.99,3019.07,2836.92,3216.12,600.03,604.75,8.29,0000 0000 0000 0000 000000
2016-04-15 05:56:17,0.23,1.17,0.00,21.48,25.81,28.77,14.74,49.96,1025.91,2041.93,3014.75,2833.56,3212.35,599.99,604.57,8.34,0000 0000 0000 0000 000000
2016-04-15 06:01:18,0.18,1.18,0.00,21.52,25.84,28.79,14.81,49.99,1025.93,2041.50,3010.48,2830.32,3208.71,599.83,604.40,8.39,0000 0000 0000 0000 000000
2016-04-15 06:06:20,0.19,1.19,0.00,21.54,25.88,28.84,14.69,50.03,1025.92,2041.08,3006.58,2827.26,3205.20,599.85,604.37,8.44,0000 0000 0000 0000 000000
2016-04-15 06:11:21,0.21,1.20,0.00,21.58,25.92,28.87,14.78,50.10,1025.97,2041.01,3002.74,2824.30,3201.88,600.15,604.54,8.49,0000 0000 0000 0000 000000
2016-04-15 06:16:22,0.21,1.21,0.00,21.63,25.96,28.89,14.75,50.17,1026.09,2041.00,2998.87,2821.35,3198.59,600.21,604.55,8.54,0000 0000 0000 0000 000000
2016-04-15 06:21:23,0.21,1.22,0.00,21.66,26.00,28.94,14.77,49.92,1026.20,2041.00,2995.04,2818.44,3195.31,599.98,604.37,8.59,0000 0000 0000 0000 000000
2016-04-15 06:26:24,0.18,1.23,0.00,21.69,26.03,28.97,14.73,49.85,1026.29,2040.94,2991.47,2815.77,3192.24,600.18,604.55,8.64,0000 0000 0000 0000 000000
2016-04-15 06:31:25,0.11,1.24,0.00,21.72,26.07,29.01,14.82,50.03,1026.30,2040.69,2988.62,2813.77,3189.84,600.19,604.45,8.69,0000 0000 0000 0000 000000
2016-04-15 06:36:27,0.20,1.24,0.00,21.76,26.11,29.04,14.79,49.69,1026.27,2040.38,2984.75,2811.12,3186.83,599.91,604.33,8.74,0000 0000 0000 0000 000000
2016-04-15 06:41:28,0.22,1.25,0.00,21.80,26.14,29.06,14.73,49.63,1026.32,2040.06,2980.36,2807.87,3183.07,600.10,604.29,8.79,0000 0000 0000 0000 000000
2016-04-15 06:46:30,0.20,1.27,0.00,21.85,26.17,29.12,14.84,49.83,1026.35,2040.00,2976.47,2804.78,3179.50,600.55,604.58,8.84,0000 0000 0000 0000 000000
2016-04-15 06:51:31,0.13,1.27,0.00,21.89,26.20,29.13,14.71,49.59,1026.33,2040.00,2973.82,2802.81,3177.28,600.28,604.34,8.89,0000 0000 0000 0000 000000
2016-04-15 06:56:33,0.16,1.28,0.00,21.93,26.22,29.18,14.71,49.51,1026.31,2039.99,2970.86,2800.80,3174.96,599.88,603.76,8.94,0000 0000 0000 0000 000000
2016-04-15 07:01:34,0.15,1.29,0.00,21.96,26.25,29.24,14.79,49.65,1026.33,2039.96,2967.72,2798.71,3172.57,600.30,604.16,8.99,0000 0000 0000 0000 000000
2016-04-15 07:06:35,0.10,1.29,0.00,21.99,26.27,29.26,14.71,49.67,1026.37,2039.88,2965.45,2797.13,3170.77,599.85,603.66,9.05,0000 0000 0000 0000 000000
2016-04-15 07:11:37,0.07,1.30,0.00,22.05,26.29,29.31,14.72,49.68,1026.38,2039.53,2963.39,2795.65,3169.02,599.72,603.39,9.10,0000 0000 0000 0000 000000
2016-04-15 07:16:38,0.06,1.30,0.00,22.08,26.30,29.35,14.67,49.58,1026.38,2039.08,2961.50,2794.32,3167.51,599.72,603.36,9.15,0000 0000 0000 0000 000000
2016-04-15 07:21:40,0.09,1.31,0.00,22.12,26.32,29.39,14.74,49.69,1026.38,2039.05,2959.69,2793.00,3165.94,600.13,603.67,9.20,0000 0000 0000 0000 000000
2016-04-15 07:26:41,0.10,1.31,0.00,22.16,26.34,29.43,14.73,49.71,1026.38,2039.01,2957.72,2791.67,3164.43,599.90,603.40,9.25,0000 0000 0000 0000 000000
2016-04-15 07:31:42,0.10,1.32,0.00,22.20,26.36,29.48,14.71,49.81,1026.38,2039.00,2955.83,2790.39,3162.82,599.80,603.07,9.30,0000 0000 0000 0000 000000
2016-04-15 07:36:43,0.09,1.32,0.00,22.23,26.37,29.53,14.73,49.83,1026.38,2039.00,2953.98,2789.05,3161.36,600.24,603.59,9.35,0000 0000 0000 0000 000000
2016-04-15 07:41:45,0.12,1.33,0.00,22.28,26.40,29.59,14.77,49.70,1026.38,2039.00,2951.80,2787.61,3159.65,599.88,603.12,9.40,0000 0000 0000 0000 000000
2016-04-15 07:46:46,0.09,1.33,0.00,22.32,26.41,29.62,14.77,49.83,1026.38,2038.98,2949.66,2786.25,3158.12,600.06,603.21,9.45,0000 0000 0000 0000 000000
2016-04-15 07:51:48,0.10,1.34,0.00,22.35,26.42,29.67,14.75,49.59,1026.38,2038.97,2947.66,2784.91,3156.56,599.85,602.85,9.50,0000 0000 0000 0000 000000
2016-04-15 07:56:48,0.09,1.34,0.00,22.41,26.45,29.68,14.70,49.45,1026.38,2038.80,2945.52,2783.44,3154.76,600.12,603.05,9.55,0000 0000 0000 0000 000000
2016-04-15 08:01:50,0.10,1.35,0.00,22.44,26.47,29.72,14.82,49.90,1026.38,2038.45,2943.34,2781.73,3152.92,600.06,602.95,9.60,0000 0000 0000 0000 000000
2016-04-15 08:06:51,0.25,1.36,0.00,22.50,26.49,29.75,14.76,49.75,1026.38,2038.18,2938.91,2778.54,3149.34,600.10,603.05,9.65,0000 0000 0000 0000 000000
2016-04-15 08:11:52,0.41,1.38,0.00,22.53,26.51,29.78,14.72,49.68,1026.39,2038.03,2931.70,2773.36,3143.53,600.15,602.98,9.70,0000 0000 0000 0000 000000
2016-04-15 08:16:53,0.31,1.39,0.00,22.57,26.54,29.82,14.65,49.77,1026.39,2038.01,2925.50,2768.75,3138.44,600.20,602.91,9.75,0000 0000 0000 0000 000000
2016-04-15 08:21:54,0.34,1.41,0.00,22.59,26.57,29.85,14.72,49.83,1026.41,2038.00,2919.50,2764.39,3133.63,600.10,602.70,9.80,0000 0000 0000 0000 000000
2016-04-15 08:26:55,0.21,1.42,0.00,22.62,26.60,29.88,14.74,49.83,1026.41,2038.00,2915.47,2761.34,3130.22,600.11,602.63,9.85,0000 0000 0000 0000 000000
2016-04-15 08:31:57,0.25,1.43,0.00,22.65,26.63,29.91,14.78,49.94,1026.41,2037.98,2911.22,2758.21,3126.71,600.16,602.66,9.90,0000 0000 0000 0000 000000
2016-04-15 08:36:58,0.31,1.45,0.00,22.69,26.68,29.94,14.68,49.74,1026.41,2037.96,2905.69,2754.11,3122.11,599.70,602.10,9.95,0000 0000 0000 0000 000000
2016-04-15 08:41:59,0.19,1.46,0.00,22.72,26.72,29.98,14.71,49.85,1026.46,2037.75,2901.43,2751.05,3118.45,600.07,602.39,10.00,0000 0000 0000 0000 000000
2016-04-15 08:47:00,0.20,1.47,0.00,22.74,26.76,30.02,14.71,50.01,1026.49,2037.15,2897.21,2747.99,3114.87,600.21,602.52,10.05,0000 0000 0000 0000 000000
2016-04-15 08:52:01,0.41,1.49,0.00,22.76,26.80,30.04,14.78,49.92,1026.67,2037.01,2890.30,2742.91,3109.20,600.60,603.07,10.10,0000 0000 0000 0000 000000
2016-04-15 08:57:03,0.43,1.51,0.00,22.77,26.84,30.07,14.73,49.95,1026.85,2037.00,2882.62,2737.30,3102.91,599.87,602.47,10.15,0000 0000 0000 0000 000000
2016-04-15 09:02:04,0.36,1.53,0.00,22.77,26.88,30.07,14.65,50.11,1026.87,2037.00,2875.96,2732.27,3097.31,599.73,602.24,10.20,0000 0000 0000 0000 000000
2016-04-15 09:07:05,0.24,1.54,0.00,22.79,26.91,30.08,14.70,50.02,1026.86,2036.98,2871.49,2728.97,3093.50,600.13,602.55,10.25,0000 0000 0000 0000 000000
2016-04-15 09:12:07,0.27,1.56,0.00,22.79,26.94,30.09,14.73,49.95,1026.86,2036.79,2866.68,2725.30,3089.36,600.28,602.76,10.30,0000 0000 0000 0000 000000
2016-04-15 09:17:08,0.28,1.57,0.00,22.79,26.98,30.11,14.79,50.02,1026.87,2036.14,2860.94,2720.94,3084.42,599.69,602.22,10.35,0000 0000 0000 0000 000000
2016-04-15 09:22:09,0.33,1.59,0.00,22.80,27.01,30.15,14.72,50.04,1026.86,2036.01,2855.24,2716.65,3079.61,600.08,602.53,10.40,0000 0000 0000 0000 000000
2016-04-15 09:27:10,0.27,1.60,0.00,22.81,27.03,30.16,14.69,50.02,1026.85,2036.00,2850.19,2712.98,3075.45,599.69,602.10,10.45,0000 0000 0000 0000 000000
2016-04-15 09:32:11,0.25,1.62,0.00,22.82,27.05,30.19,14.69,49.92,1026.87,2036.00,2845.86,2709.82,3071.95,600.21,602.57,10.50,0000 0000 0000 0000 000000
2016-04-15 09:37:13,0.21,1.63,0.00,22.82,27.07,30.19,14.67,49.85,1026.87,2035.98,2841.87,2706.94,3068.77,600.12,602.64,10.55,0000 0000 0000 0000 000000
2016-04-15 09:42:14,0.22,1.64,0.00,22.82,27.09,30.24,14.74,49.86,1026.88,2035.97,2838.16,2704.23,3065.69,599.83,602.24,10.60,0000 0000 0000 0000 000000
2016-04-15 09:47:15,0.25,1.65,0.00,22.83,27.10,30.21,14.72,49.91,1026.88,2035.94,2834.00,2701.11,3062.15,599.83,602.28,10.65,0000 0000 0000 0000 000000
2016-04-15 09:52:16,0.24,1.66,0.00,22.83,27.12,30.24,14.64,49.85,1026.89,2035.64,2829.23,2697.57,3058.10,599.68,602.23,10.70,0000 0000 0000 0000 000000
2016-04-15 09:57:18,0.27,1.68,0.00,22.84,27.13,30.27,14.70,49.78,1026.90,2035.27,2824.24,2693.80,3053.79,599.82,602.12,10.75,0000 0000 0000 0000 000000
2016-04-15 10:02:19,0.25,1.69,0.00,22.84,27.15,30.29,14.78,49.80,1026.94,2035.05,2819.47,2690.30,3049.88,600.02,602.43,10.80,0000 0000 0000 0000 000000
2016-04-15 10:07:20,0.21,1.70,0.00,22.84,27.15,30.30,14.77,49.82,1026.97,2035.01,2815.77,2687.54,3046.69,600.17,602.61,10.85,0000 0000 0000 0000 000000
2016-04-15 10:12:21,0.23,1.71,0.00,22.83,27.17,30.32,14.73,49.95,1026.93,2035.00,2811.93,2684.72,3043.35,599.95,602.34,10.90,0000 0000 0000 0000 000000
2016-04-15 10:17:23,0.21,1.72,0.00,22.83,27.17,30.33,14.69,49.86,1027.07,2035.00,2808.09,2681.93,3040.14,599.89,602.40,10.95,0000 0000 0000 0000 000000
2016-04-15 10:22:24,0.19,1.74,0.00,22.83,27.17,30.35,14.60,49.78,1027.18,2035.00,2804.70,2679.53,3037.43,599.73,602.30,11.00,0000 0000 0000 0000 000000
2016-04-15 10:27:25,0.21,1.74,0.00,22.83,27.18,30.36,14.73,49.93,1027.25,2035.00,2801.08,2676.92,3034.48,600.14,602.76,11.05,0000 0000 0000 0000 000000
2016-04-15 10:32:26,0.25,1.76,0.00,22.81,27.18,30.39,14.78,49.64,1027.30,2034.99,2797.09,2673.98,3031.18,600.26,602.94,11.10,0000 0000 0000 0000 000000
2016-04-15 10:37:27,0.27,1.77,0.00,22.81,27.18,30.42,14.73,49.64,1027.34,2034.98,2792.48,2670.63,3027.34,600.11,602.91,11.15,0000 0000 0000 0000 000000
2016-04-15 10:42:29,0.23,1.78,0.00,22.81,27.17,30.41,14.63,49.48,1027.35,2034.98,2788.26,2667.54,3023.86,599.77,602.49,11.20,0000 0000 0000 0000 000000
2016-04-15 10:47:30,0.20,1.80,0.00,22.82,27.17,30.42,14.69,49.74,1027.36,2034.98,2784.83,2665.01,3020.97,599.76,602.53,11.25,0000 0000 0000 0000 000000
2016-04-15 10:52:31,0.23,1.81,0.00,22.82,27.17,30.41,14.75,49.87,1027.36,2034.96,2781.02,2662.26,3017.87,600.01,602.59,11.30,0000 0000 0000 0000 000000
2016-04-15 10:57:32,0.21,1.82,0.00,22.84,27.17,30.41,14.68,49.77,1027.36,2034.98,2777.19,2659.57,3014.83,599.83,602.38,11.35,0000 0000 0000 0000 000000
2016-04-15 11:02:34,0.20,1.83,0.00,22.88,27.16,30.39,14.76,49.67,1027.36,2034.99,2773.80,2657.16,3012.12,600.14,602.71,11.41,0000 0000 0000 0000 000000
2016-04-15 11:07:35,0.19,1.84,0.00,22.92,27.15,30.39,14.75,49.66,1027.36,2034.99,2770.64,2654.80,3009.40,600.03,602.46,11.46,0000 0000 0000 0000 000000
2016-04-15 11:12:36,0.20,1.85,0.00,22.93,27.15,30.38,14.72,49.88,1027.36,2034.97,2767.11,2652.27,3006.72,599.98,602.47,11.51,0000 0000 0000 0000 000000
2016-04-15 11:17:38,0.18,1.86,0.00,22.85,27.13,30.37,14.74,49.83,1027.36,2034.98,2763.90,2649.99,3004.26,599.76,602.54,11.56,0000 0000 0000 0000 000000
2016-04-15 11:22:39,0.16,1.87,0.00,22.75,27.12,30.36,14.72,49.74,1027.36,2034.99,2761.02,2647.97,3001.96,600.15,603.06,11.61,0000 0000 0000 0000 000000
2016-04-15 11:27:40,0.16,1.87,0.00,22.66,27.11,30.36,14.74,49.81,1027.36,2034.99,2758.26,2646.04,2999.76,600.04,603.06,11.66,0000 0000 0000 0000 000000
2016-04-15 11:32:42,0.18,1.88,0.00,22.58,27.10,30.35,14.76,49.92,1027.36,2034.99,2755.37,2643.82,2997.28,600.06,603.29,11.71,0000 0000 0000 0000 000000
2016-04-15 11:37:43,0.13,1.89,0.00,22.48,27.08,30.34,14.76,49.92,1027.34,2034.99,2753.00,2642.12,2995.34,600.17,603.59,11.76,0000 0000 0000 0000 000000
2016-04-15 11:42:44,0.15,1.90,0.00,22.42,27.07,30.34,14.81,49.85,1027.30,2034.99,2750.96,2640.43,2993.20,600.32,603.72,11.81,0000 0000 0000 0000 000000
2016-04-15 11:47:45,0.19,1.91,0.00,22.36,27.05,30.30,14.73,49.89,1027.09,2034.99,2747.79,2638.11,2990.66,600.02,603.53,11.86,0000 0000 0000 0000 000000
2016-04-15 11:52:47,0.20,1.92,0.00,22.30,27.03,30.28,14.80,49.75,1026.97,2035.00,2744.59,2635.72,2987.97,600.18,603.72,11.91,0000 0000 0000 0000 000000
2016-04-15 11:57:48,0.21,1.93,0.00,22.24,27.01,30.28,14.77,49.80,1026.93,2035.00,2741.27,2633.19,2985.01,600.03,603.66,11.96,0000 0000 0000 0000 000000
2016-04-15 12:02:50,0.19,1.94,0.00,22.19,26.99,30.27,14.70,49.71,1026.90,2035.01,2738.19,2630.85,2982.31,599.62,603.37,12.01,0000 0000 0000 0000 000000
2016-04-15 12:07:51,0.16,1.95,0.00,22.14,26.96,30.25,14.85,49.75,1026.88,2035.01,2735.27,2628.87,2979.99,600.09,603.72,12.06,0000 0000 0000 0000 000000
2016-04-15 12:12:52,0.18,1.96,0.00,22.10,26.93,30.23,14.81,49.68,1026.87,2035.04,2732.21,2626.74,2977.67,599.87,603.82,12.11,0000 0000 0000 0000 000000
2016-04-15 12:17:53,0.19,1.96,0.00,22.05,26.90,30.22,14.78,49.75,1026.87,2035.16,2729.22,2624.68,2975.40,600.04,604.02,12.16,0000 0000 0000 0000 000000
2016-04-15 12:22:55,0.18,1.97,0.00,22.00,26.87,30.19,14.82,49.84,1026.87,2035.47,2726.58,2622.92,2973.22,600.24,604.34,12.21,0000 0000 0000 0000 000000
2016-04-15 12:27:56,0.17,1.98,0.00,21.95,26.83,30.18,14.79,49.66,1026.87,2035.81,2724.02,2621.23,2971.20,600.15,604.36,12.26,0000 0000 0000 0000 000000
2016-04-15 12:32:57,0.16,1.99,0.00,21.90,26.80,30.15,14.82,49.63,1026.87,2035.95,2721.39,2619.46,2969.16,600.21,604.53,12.31,0000 0000 0000 0000 000000
2016-04-15 12:37:59,0.16,2.00,0.00,21.86,26.77,30.12,14.82,49.65,1026.87,2035.98,2718.76,2617.64,2967.05,600.15,604.57,12.36,0000 0000 0000 0000 000000
2016-04-15 12:43:00,0.14,2.01,0.00,21.80,26.74,30.11,14.76,49.51,1026.87,2035.99,2716.29,2615.92,2965.00,599.83,604.39,12.41,0000 0000 0000 0000 000000
2016-04-15 12:48:01,0.13,2.02,0.00,21.75,26.70,30.07,14.80,49.52,1026.86,2035.99,2713.96,2614.36,2963.21,600.47,604.93,12.46,0000 0000 0000 0000 000000
2016-04-15 12:53:03,0.13,2.02,0.00,21.71,26.66,30.04,14.73,49.34,1026.82,2035.99,2711.57,2612.78,2961.56,599.57,604.50,12.51,0000 0000 0000 0000 000000
2016-04-15 12:58:04,0.10,2.03,0.00,21.66,26.63,30.01,14.72,49.35,1026.69,2036.03,2709.82,2611.58,2960.07,599.56,604.24,12.56,0000 0000 0000 0000 000000
2016-04-15 13:03:06,0.13,2.03,0.00,21.60,26.59,29.99,14.77,49.58,1026.58,2036.13,2707.91,2610.40,2958.70,599.84,604.59,12.61,0000 0000 0000 0000 000000